Time,TemperatureF,DewpointF,PressureIn,WindDirection,WindDirectionDegrees,WindSpeedMPH,WindSpeedGustMPH,Humidity,HourlyPrecipIn,Conditions,Clouds,dailyrainin,SoftwareType,DateUTC
2013-03-26 00:13:00,43.0,5.0,30.24,NW,325,2.0,9.0,21,0.00,,,0.00,weatherlink.com 1.10,2013-03-26 06:13:00,
2013-03-26 00:28:00,42.2,6.0,30.24,North,7,5.0,10.0,22,0.00,,,0.00,weatherlink.com 1.10,2013-03-26 06:28:00,
2013-03-26 00:43:00,41.1,6.0,30.24,NE,49,6.0,10.0,23,0.00,,,0.00,weatherlink.com 1.10,2013-03-26 06:43:00,
2013-03-26 00:58:00,40.3,6.0,30.23,North,10,8.0,12.0,24,0.00,,,0.00,weatherlink.com 1.10,2013-03-26 06:58:00,
2013-03-26 01:14:00,39.7,5.0,30.24,NE,44,0.0,8.0,24,0.00,,,0.00,weatherlink.com 1.10,2013-03-26 07:14:00,
2013-03-26 01:29:00,39.1,6.0,30.23,NNE,21,1.0,11.0,25,0.00,,,0.00,weatherlink.com 1.10,2013-03-26 07:29:00,
2013-03-26 01:44:00,38.6,6.0,30.24,NNW,331,1.0,8.0,26,0.00,,,0.00,weatherlink.com 1.10,2013-03-26 07:44:00,
2013-03-26 01:59:00,38.4,6.0,30.25,ESE,109,0.0,6.0,26,0.00,,,0.00,weatherlink.com 1.10,2013-03-26 07:59:00,
2013-03-26 02:14:00,37.9,7.0,30.24,NE,51,6.0,8.0,27,0.00,,,0.00,weatherlink.com 1.10,2013-03-26 08:14:00,
2013-03-26 02:29:00,37.8,7.0,30.24,NNE,16,2.0,7.0,28,0.00,,,0.00,weatherlink.com 1.10,2013-03-26 08:29:00,
2013-03-26 02:44:00,37.4,7.0,30.24,NNE,15,4.0,10.0,28,0.00,,,0.00,weatherlink.com 1.10,2013-03-26 08:44:00,
2013-03-26 02:59:00,36.8,6.0,30.23,North,352,2.0,8.0,28,0.00,,,0.00,weatherlink.com 1.10,2013-03-26 08:59:00,
2013-03-26 03:14:00,36.3,7.0,30.24,NE,49,1.0,7.0,29,0.00,,,0.00,weatherlink.com 1.10,2013-03-26 09:14:00,
2013-03-26 03:29:00,35.8,6.0,30.23,North,3,4.0,6.0,29,0.00,,,0.00,weatherlink.com 1.10,2013-03-26 09:29:00,
2013-03-26 03:44:00,35.3,7.0,30.24,NW,310,1.0,4.0,30,0.00,,,0.00,weatherlink.com 1.10,2013-03-26 09:44:00,
2013-03-26 03:59:00,34.7,6.0,30.24,North,3,3.0,5.0,30,0.00,,,0.00,weatherlink.com 1.10,2013-03-26 09:59:00,
2013-03-26 04:14:00,34.2,6.0,30.23,ESE,120,1.0,5.0,30,0.00,,,0.00,weatherlink.com 1.10,2013-03-26 10:14:00,
2013-03-26 04:29:00,33.8,5.0,30.23,North,359,1.0,8.0,30,0.00,,,0.00,weatherlink.com 1.10,2013-03-26 10:29:00,
2013-03-26 04:44:00,33.6,6.0,30.23,North,2,6.0,9.0,31,0.00,,,0.00,weatherlink.com 1.10,2013-03-26 10:44:00,
2013-03-26 04:59:00,33.2,5.0,30.23,North,352,2.0,8.0,31,0.00,,,0.00,weatherlink.com 1.10,2013-03-26 10:59:00,
2013-03-26 05:14:00,32.7,5.0,30.23,ENE,77,2.0,7.0,31,0.00,,,0.00,weatherlink.com 1.10,2013-03-26 11:14:00,
2013-03-26 05:29:00,32.2,5.0,30.23,NE,54,1.0,5.0,32,0.00,,,0.00,weatherlink.com 1.10,2013-03-26 11:29:00,
2013-03-26 05:44:00,32.4,5.0,30.24,NNW,337,1.0,6.0,32,0.00,,,0.00,weatherlink.com 1.10,2013-03-26 11:44:00,
2013-03-26 05:59:00,32.1,5.0,30.24,NNE,15,1.0,4.0,32,0.00,,,0.00,weatherlink.com 1.10,2013-03-26 11:59:00,
2013-03-26 06:14:00,31.4,5.0,30.25,North,356,1.0,3.0,33,0.00,,,0.00,weatherlink.com 1.10,2013-03-26 12:14:00,
2013-03-26 06:29:00,31.2,6.0,30.25,NW,312,0.0,3.0,34,0.00,,,0.00,weatherlink.com 1.10,2013-03-26 12:29:00,
2013-03-26 06:44:00,30.7,5.0,30.25,NW,316,0.0,1.0,34,0.00,,,0.00,weatherlink.com 1.10,2013-03-26 12:44:00,
2013-03-26 06:59:00,30.1,5.0,30.25,NW,308,0.0,1.0,35,0.00,,,0.00,weatherlink.com 1.10,2013-03-26 12:59:00,
2013-03-26 07:14:00,29.7,6.0,30.25,NW,308,0.0,0.0,36,0.00,,,0.00,weatherlink.com 1.10,2013-03-26 13:14:00,
2013-03-26 07:29:00,30.5,6.0,30.26,WNW,302,0.0,2.0,35,0.00,,,0.00,weatherlink.com 1.10,2013-03-26 13:29:00,
2013-03-26 07:44:00,31.9,6.0,30.26,NNW,345,0.0,2.0,33,0.00,,,0.00,weatherlink.com 1.10,2013-03-26 13:44:00,
2013-03-26 07:59:00,33.6,6.0,30.26,North,4,0.0,3.0,31,0.00,,,0.00,weatherlink.com 1.10,2013-03-26 13:59:00,
2013-03-26 08:14:00,34.8,5.0,30.26,North,10,1.0,2.0,29,0.00,,,0.00,weatherlink.com 1.10,2013-03-26 14:14:00,
2013-03-26 08:29:00,35.7,6.0,30.27,NW,314,0.0,5.0,29,0.00,,,0.00,weatherlink.com 1.10,2013-03-26 14:29:00,
2013-03-26 08:45:00,36.9,6.0,30.26,North,1,1.0,5.0,28,0.00,,,0.00,weatherlink.com 1.10,2013-03-26 14:45:00,
2013-03-26 09:00:00,37.7,6.0,30.27,NE,37,1.0,6.0,26,0.00,,,0.00,weatherlink.com 1.10,2013-03-26 15:00:00,
2013-03-26 09:15:00,39.1,7.0,30.26,NNE,26,3.0,5.0,26,0.00,,,0.00,weatherlink.com 1.10,2013-03-26 15:15:00,
2013-03-26 09:30:00,40.6,7.0,30.26,North,359,0.0,5.0,25,0.00,,,0.00,weatherlink.com 1.10,2013-03-26 15:30:00,
2013-03-26 09:45:00,43.1,7.0,30.26,SE,124,0.0,4.0,23,0.00,,,0.00,weatherlink.com 1.10,2013-03-26 15:45:00,
2013-03-26 10:00:00,44.4,8.0,30.25,East,89,2.0,4.0,22,0.00,,,0.00,weatherlink.com 1.10,2013-03-26 16:00:00,
2013-03-26 10:15:00,45.9,8.0,30.25,SE,145,2.0,5.0,21,0.00,,,0.00,weatherlink.com 1.10,2013-03-26 16:15:00,
2013-03-26 10:30:00,47.0,8.0,30.25,ESE,123,1.0,5.0,20,0.00,,,0.00,weatherlink.com 1.10,2013-03-26 16:30:00,
2013-03-26 10:45:00,47.9,8.0,30.24,SSE,160,6.0,7.0,20,0.00,,,0.00,weatherlink.com 1.10,2013-03-26 16:45:00,
2013-03-26 11:00:00,48.4,8.0,30.24,SSE,155,4.0,11.0,19,0.00,,,0.00,weatherlink.com 1.10,2013-03-26 17:00:00,
2013-03-26 11:15:00,49.1,8.0,30.22,SSW,207,3.0,11.0,19,0.00,,,0.00,weatherlink.com 1.10,2013-03-26 17:15:00,
2013-03-26 11:30:00,50.3,8.0,30.22,SW,229,8.0,13.0,18,0.00,,,0.00,weatherlink.com 1.10,2013-03-26 17:30:00,
2013-03-26 11:45:00,51.4,9.0,30.21,South,181,2.0,8.0,18,0.00,,,0.00,weatherlink.com 1.10,2013-03-26 17:45:00,
2013-03-26 12:00:00,52.2,8.0,30.20,SSW,209,6.0,10.0,17,0.00,,,0.00,weatherlink.com 1.10,2013-03-26 18:00:00,
2013-03-26 12:15:00,53.3,9.0,30.19,WSW,250,8.0,11.0,17,0.00,,,0.00,weatherlink.com 1.10,2013-03-26 18:15:00,
2013-03-26 12:30:00,54.3,9.0,30.18,SE,143,6.0,14.0,16,0.00,,,0.00,weatherlink.com 1.10,2013-03-26 18:30:00,
2013-03-26 12:45:00,55.6,10.0,30.17,SW,214,6.0,10.0,16,0.00,,,0.00,weatherlink.com 1.10,2013-03-26 18:45:00,
2013-03-26 13:00:00,55.7,10.0,30.15,SE,144,7.0,13.0,16,0.00,,,0.00,weatherlink.com 1.10,2013-03-26 19:00:00,
2013-03-26 13:16:00,57.0,10.0,30.14,SW,231,1.0,12.0,15,0.00,,,0.00,weatherlink.com 1.10,2013-03-26 19:16:00,
2013-03-26 13:30:00,59.3,10.0,30.13,SSE,161,5.0,11.0,14,0.00,,,0.00,weatherlink.com 1.10,2013-03-26 19:30:00,
2013-03-26 13:45:00,60.3,11.0,30.11,SSW,204,5.0,12.0,14,0.00,,,0.00,weatherlink.com 1.10,2013-03-26 19:45:00,
2013-03-26 14:00:00,61.0,10.0,30.10,SW,231,8.0,12.0,13,0.00,,,0.00,weatherlink.com 1.10,2013-03-26 20:00:00,
2013-03-26 14:16:00,61.1,10.0,30.09,SW,236,11.0,13.0,13,0.00,,,0.00,weatherlink.com 1.10,2013-03-26 20:16:00,
2013-03-26 14:31:00,62.3,11.0,30.07,South,169,4.0,14.0,13,0.00,,,0.00,weatherlink.com 1.10,2013-03-26 20:31:00,
2013-03-26 14:46:00,63.3,10.0,30.06,SE,144,5.0,13.0,12,0.00,,,0.00,weatherlink.com 1.10,2013-03-26 20:46:00,
2013-03-26 15:46:00,65.9,10.0,30.01,WSW,247,7.0,14.0,11,0.00,,,0.00,weatherlink.com 1.10,2013-03-26 21:46:00,
2013-03-26 16:01:00,65.8,10.0,29.99,SW,216,5.0,12.0,11,0.00,,,0.00,weatherlink.com 1.10,2013-03-26 22:01:00,
2013-03-26 16:16:00,65.8,10.0,29.98,ENE,71,5.0,14.0,11,0.00,,,0.00,weatherlink.com 1.10,2013-03-26 22:16:00,
2013-03-26 16:31:00,65.0,9.0,29.98,SSE,160,5.0,13.0,11,0.00,,,0.00,weatherlink.com 1.10,2013-03-26 22:31:00,
2013-03-26 16:46:00,66.4,10.0,29.96,South,180,5.0,14.0,11,0.00,,,0.00,weatherlink.com 1.10,2013-03-26 22:46:00,
2013-03-26 17:01:00,66.9,8.0,29.96,WSW,245,5.0,16.0,10,0.00,,,0.00,weatherlink.com 1.10,2013-03-26 23:01:00,
2013-03-26 17:16:00,67.3,9.0,29.96,SSW,197,7.0,12.0,10,0.00,,,0.00,weatherlink.com 1.10,2013-03-26 23:16:00,
2013-03-26 17:31:00,66.4,10.0,29.95,SE,127,6.0,13.0,11,0.00,,,0.00,weatherlink.com 1.10,2013-03-26 23:31:00,
2013-03-26 18:01:00,66.0,10.0,29.94,SW,214,5.0,11.0,11,0.00,,,0.00,weatherlink.com 1.10,2013-03-27 00:01:00,
2013-03-26 18:31:00,64.0,10.0,29.94,SW,220,7.0,14.0,12,0.00,,,0.00,weatherlink.com 1.10,2013-03-27 00:31:00,
2013-03-26 18:46:00,63.3,10.0,29.94,SSW,202,3.0,11.0,12,0.00,,,0.00,weatherlink.com 1.10,2013-03-27 00:46:00,
2013-03-26 19:16:00,62.0,10.0,29.95,South,191,6.0,18.0,13,0.00,,,0.00,weatherlink.com 1.10,2013-03-27 01:16:00,
2013-03-26 19:31:00,61.3,11.0,29.94,SSE,164,3.0,15.0,14,0.00,,,0.00,weatherlink.com 1.10,2013-03-27 01:31:00,
2013-03-26 20:01:00,59.8,12.0,29.94,SSE,155,0.0,11.0,15,0.00,,,0.00,weatherlink.com 1.10,2013-03-27 02:01:00,
2013-03-26 20:16:00,59.2,11.0,29.95,South,169,1.0,12.0,15,0.00,,,0.00,weatherlink.com 1.10,2013-03-27 02:16:00,
2013-03-26 20:31:00,58.7,11.0,29.95,South,176,2.0,10.0,15,0.00,,,0.00,weatherlink.com 1.10,2013-03-27 02:31:00,
2013-03-26 20:46:00,58.4,12.0,29.95,WSW,242,1.0,13.0,16,0.00,,,0.00,weatherlink.com 1.10,2013-03-27 02:46:00,
2013-03-26 21:01:00,58.1,12.0,29.95,SE,138,1.0,13.0,16,0.00,,,0.00,weatherlink.com 1.10,2013-03-27 03:01:00,
2013-03-26 21:16:00,57.8,12.0,29.96,WSW,242,9.0,10.0,16,0.00,,,0.00,weatherlink.com 1.10,2013-03-27 03:16:00,
2013-03-26 21:32:00,57.3,11.0,29.96,South,173,0.0,11.0,16,0.00,,,0.00,weatherlink.com 1.10,2013-03-27 03:32:00,
2013-03-26 21:46:00,56.8,12.0,29.96,SSW,196,4.0,10.0,17,0.00,,,0.00,weatherlink.com 1.10,2013-03-27 03:46:00,
2013-03-26 22:01:00,56.3,12.0,29.96,SSW,205,6.0,13.0,17,0.00,,,0.00,weatherlink.com 1.10,2013-03-27 04:01:00,
2013-03-26 22:16:00,55.6,12.0,29.97,SSW,194,5.0,11.0,18,0.00,,,0.00,weatherlink.com 1.10,2013-03-27 04:16:00,
2013-03-26 22:31:00,54.9,12.0,29.97,SSW,192,4.0,11.0,18,0.00,,,0.00,weatherlink.com 1.10,2013-03-27 04:31:00,
2013-03-26 22:46:00,53.9,12.0,29.97,SSW,193,1.0,7.0,19,0.00,,,0.00,weatherlink.com 1.10,2013-03-27 04:46:00,
2013-03-26 23:01:00,52.9,13.0,29.97,South,172,3.0,8.0,20,0.00,,,0.00,weatherlink.com 1.10,2013-03-27 05:01:00,
2013-03-26 23:16:00,52.9,11.0,29.98,SSW,202,5.0,10.0,19,0.00,,,0.00,weatherlink.com 1.10,2013-03-27 05:16:00,
2013-03-26 23:31:00,52.5,12.0,29.99,SSW,194,2.0,8.0,20,0.00,,,0.00,weatherlink.com 1.10,2013-03-27 05:31:00,
2013-03-26 23:47:00,51.6,13.0,29.99,SSW,194,5.0,8.0,21,0.00,,,0.00,weatherlink.com 1.10,2013-03-27 05:47:00,